Overview Statistics Trail Chart Weather Telemetry Raw packets
 

This is the latest recevied weather packets stored in our database for station/object NO9B. If no packets are shown the sender has not sent any weather packets the latest 10 day(s).

<< 66 67 68 69 70 71 72 >>
Time Temp. Humidity Pressure Rain* Wind** Luminosity Snow
1788216201 29.44° C 74% 1013.4 hPa 0 mm - 44 W/m² -
1788215896 29.44° C 73% 1013.3 hPa 0 mm - 48 W/m² -
1788215592 29.44° C 74% 1013.1 hPa 0 mm - 40 W/m² -
1788215289 30° C 73% 1013.2 hPa 0 mm - 37 W/m² -
1788214984 30.56° C 71% 1013.2 hPa 0 mm - 37 W/m² -
1788214679 30° C 70% 1013.2 hPa 0 mm - 108 W/m² -
1788214375 30° C 71% 1013.4 hPa 0 mm - 169 W/m² -
1788214074 30.56° C 70% 1013.3 hPa 0 mm - 46 W/m² -
1788213769 30.56° C 71% 1013.3 hPa 0 mm - 211 W/m² -
1788213464 30.56° C 69% 1013.3 hPa 0 mm - 219 W/m² -
1788213161 30° C 71% 1013.4 hPa 0 mm - 248 W/m² -
1788212857 30° C 72% 1013.3 hPa 0 mm - 222 W/m² -
1788212554 30° C 72% 1013.1 hPa 0 mm - 108 W/m² -
1788212256 30° C 72% 1013.4 hPa 0 mm - 101 W/m² -
1788211946 29.44° C 73% 1013.5 hPa 0 mm - 367 W/m² -
1788211641 29.44° C 73% 1013.5 hPa 0 mm - 106 W/m² -
1788211337 29.44° C 74% 1013.6 hPa 0 mm - 103 W/m² -
1788211036 29.44° C 75% 1013.5 hPa 0 mm - 128 W/m² -
1788210731 29.44° C 73% 1013.1 hPa 0 mm - 109 W/m² -
1788210431 28.89° C 74% 1013.2 hPa 0 mm - 187 W/m² -
1788210127 28.89° C 75% 1013.2 hPa 0 mm - 126 W/m² -
1788209827 28.89° C 74% 1013 hPa 0 mm - 87 W/m² -
1788209523 28.89° C 73% 1012.9 hPa 0 mm - 72 W/m² -
1788209223 28.89° C 74% 1012.9 hPa 0 mm - 73 W/m² -
1788208922 28.89° C 74% 1012.9 hPa 0 mm - 64 W/m² -

* Rain latest hour (hover to see other rain measurements)
** Current wind speed in m/s (hover to see current wind gust speed)